GFSSE_850_rhum_054.txt.gz
RH
98 96 71 67 77 74 75 75 73 72 75 68 53 38 22 11 9 10 12 15 26 66 66 67 66 54 46 40 35 34 34 28 22 22 24 28 32 36 43 55 93 96 80
97 97 71 64 75 77 75 75 75 73 57 48 31 16 9 9 11 14 18 28 41 45 55 63 59 52 40 39 40 42 43 42 35 37 59 38 27 33 37 37 36 45 61
99 89 70 63 60 72 77 72 57 48 38 24 14 9 10 13 17 20 26 40 51 54 53 50 45 38 41 43 44 43 40 40 34 45 69 70 66 26 27 32 40 41 39
98 98 95 63 58 56 54 50 44 29 18 12 10 11 15 19 20 24 35 50 55 56 54 45 39 41 44 42 40 37 36 34 34 69 64 70 83 23 23 28 29 33 63
90 98 99 62 60 58 54 44 26 16 11 10 12 15 19 20 22 30 38 44 50 60 43 42 42 43 42 43 41 39 41 40 56 67 69 77 82 46 26 29 35 30 33
96 98 91 66 68 60 47 27 16 10 10 12 17 19 21 26 33 36 35 37 43 38 42 44 41 40 40 41 42 44 40 34 62 64 75 87 90 22 19 23 30 27 28
96 99 95 77 76 52 29 19 12 10 13 17 19 22 30 37 38 36 36 34 35 39 39 39 42 42 41 42 36 30 28 32 58 62 74 87 84 26 18 16 17 21 26
99 98 97 82 79 61 52 23 19 18 18 20 20 21 40 39 36 33 34 36 37 41 44 48 46 41 37 33 31 30 25 38 57 60 72 87 58 28 16 17 20 22 23
99 100 100 88 87 51 61 26 30 43 22 18 23 25 34 32 34 35 38 41 44 47 50 52 52 49 40 34 34 28 19 17 55 61 64 80 52 40 21 21 26 28 29
100 97 98 98 88 48 39 33 25 45 26 25 28 33 35 35 38 41 44 46 47 50 55 57 57 56 50 40 34 28 20 33 51 52 66 85 94 78 34 27 34 34 36
100 100 98 96 63 51 64 53 37 26 36 40 37 38 39 43 45 51 44 44 48 54 58 59 62 64 59 45 35 31 28 40 46 49 59 43 82 95 91 36 40 45 46
100 100 100 88 74 86 68 53 44 45 46 39 39 39 56 63 70 49 43 46 53 57 59 61 63 65 64 55 40 36 33 28 37 38 46 18 86 86 97 96 54 51 51
99 100 100 91 74 70 74 74 78 66 46 42 35 38 41 43 41 43 46 55 58 62 62 64 66 65 65 63 44 39 33 32 30 30 18 10 21 86 97 95 96 66 53
100 99 93 92 84 82 94 68 59 56 51 36 35 36 36 38 44 58 73 81 58 71 63 66 66 67 65 66 45 40 35 21 19 30 27 13 23 82 68 85 79 88 79
99 99 100 100 96 89 79 70 70 50 39 45 39 38 37 47 42 54 68 74 68 64 67 67 69 69 64 67 46 44 28 17 15 42 58 18 26 62 81 82 64 71 77
98 99 94 92 88 88 80 74 52 41 44 42 36 37 35 36 37 45 53 60 64 67 69 70 71 70 67 64 46 41 21 16 18 31 55 48 28 51 74 70 93 97 96
94 97 90 93 93 81 74 68 86 79 74 52 55 36 37 44 50 59 66 68 71 71 72 72 72 73 73 56 48 33 25 20 22 21 51 61 67 43 45 55 60 70 76
84 88 93 94 85 90 85 65 85 77 46 69 43 60 66 67 67 70 73 74 77 78 77 73 74 75 71 56 46 37 32 30 21 18 57 62 65 64 74 74 70 72 72
79 82 88 87 75 78 90 54 39 53 50 55 71 79 77 77 74 74 77 77 78 83 78 75 76 77 64 57 52 54 45 46 42 41 40 56 47 50 44 52 37 37 37
81 78 78 83 80 61 83 45 47 58 62 64 73 73 79 77 74 73 69 72 81 82 77 77 79 77 64 58 49 58 63 59 55 55 54 48 52 58 55 48 52 52 55
83 88 88 88 83 92 92 85 73 57 75 62 67 78 71 71 69 74 74 74 86 82 78 80 81 67 67 56 65 65 71 74 70 58 60 53 54 59 60 56 57 53 51
80 86 86 84 92 94 90 86 78 73 79 67 68 68 72 74 70 74 70 77 87 88 84 83 78 71 71 59 67 71 64 61 71 69 64 62 63 64 56 61 66 67 66
77 86 89 90 92 96 92 90 85 86 89 60 50 53 73 73 72 72 70 78 85 88 86 85 72 69 70 76 63 75 64 56 52 53 66 70 66 69 62 58 71 75 74
76 75 76 77 84 93 97 86 81 72 74 74 58 68 69 72 83 74 71 80 86 90 89 82 67 74 71 76 83 77 74 66 58 54 52 63 70 74 66 71 72 76 79
78 78 79 79 81 89 94 96 93 82 73 82 86 71 73 78 88 79 79 83 94 93 85 72 69 69 63 69 88 82 75 72 72 68 52 41 42 53 61 72 74 77 78
80 85 87 84 83 89 94 76 90 90 87 93 75 71 78 86 92 80 83 88 93 87 78 73 71 72 68 85 89 84 74 62 50 44 47 48 47 52 62 72 72 70 75

GFSSE_850_rhum_060.txt.gz
RH
95 74 75 74 66 70 70 66 61 60 63 62 58 44 19 11 18 22 36 62 42 54 54 45 34 25 26 28 27 27 39 60 66 43 29 35 43 48 43 37 51 73 82
94 78 71 91 96 78 72 69 65 64 66 64 49 25 9 12 15 45 71 54 57 56 45 38 29 32 34 35 34 40 57 65 73 73 52 44 68 62 44 42 41 54 62
89 81 78 84 97 89 78 74 69 69 69 59 35 12 9 11 29 68 69 56 56 48 42 32 35 33 30 30 29 56 64 67 72 79 75 74 95 80 74 70 63 70 69
41 80 92 97 98 88 81 78 73 72 70 46 18 9 10 15 49 67 58 50 52 44 34 36 35 34 34 35 35 59 64 68 72 76 79 77 86 90 72 46 50 65 86
73 88 89 99 100 93 83 80 76 76 59 29 10 10 14 22 44 66 68 54 44 35 38 38 38 37 37 33 48 57 60 60 66 68 74 63 35 41 31 25 26 28 34
100 97 89 99 98 99 89 84 82 72 44 15 10 16 20 29 46 65 66 48 36 36 37 38 37 37 27 24 44 54 57 64 72 72 29 17 15 12 12 12 14 16 21
93 97 88 100 100 92 91 88 83 55 22 10 15 23 26 36 51 66 61 37 36 37 39 36 32 26 24 21 39 52 54 62 66 58 18 16 18 18 13 12 12 12 15
98 100 97 99 98 100 97 92 63 31 14 16 25 31 36 50 59 59 50 38 38 42 40 36 29 25 22 17 25 46 50 59 66 69 49 17 17 13 11 11 11 12 14
92 77 69 99 100 100 100 77 36 23 26 33 37 44 47 51 55 54 39 38 43 46 44 40 32 25 22 20 22 47 53 56 66 75 54 20 20 16 13 16 20 21 20
95 83 75 67 64 89 86 89 64 64 60 43 51 64 56 55 45 40 40 42 48 49 51 52 39 28 25 24 32 42 46 47 55 58 48 23 25 27 18 18 20 21 22
99 91 82 77 92 85 86 78 70 62 53 55 68 59 49 50 48 42 44 48 52 54 57 58 53 38 34 31 32 36 41 40 48 52 42 23 47 44 23 21 23 22 27
98 100 95 97 96 92 84 82 62 70 62 76 65 54 53 55 44 48 49 52 54 58 60 61 58 53 51 46 43 35 34 34 35 36 34 14 29 35 26 25 26 26 28
100 98 100 100 99 97 90 71 70 60 67 76 61 48 54 50 51 48 47 53 58 60 60 61 62 60 57 44 37 34 34 34 33 33 34 12 41 67 61 33 38 37 38
100 100 99 99 99 98 79 67 63 71 76 70 73 70 67 58 47 49 48 56 58 61 61 68 69 64 60 48 39 34 28 31 37 37 40 12 39 93 78 43 49 49 54
99 100 100 99 100 95 74 74 65 83 84 73 72 57 52 42 48 52 52 56 60 70 67 75 68 68 62 53 40 38 36 32 37 46 54 44 15 23 46 63 52 46 64
100 98 100 100 96 85 78 77 85 92 77 61 54 47 45 55 61 64 76 79 74 76 70 75 72 71 66 63 44 40 37 36 32 51 47 47 46 17 52 63 79 92 95
99 99 99 96 94 82 74 89 88 73 73 56 54 48 59 75 58 84 85 82 80 78 78 74 76 73 69 59 54 43 43 44 40 39 47 52 58 62 36 34 34 40 46
96 96 93 87 87 85 86 87 82 76 62 61 61 66 64 83 79 72 76 76 83 79 77 77 75 73 70 61 53 49 47 47 48 50 51 57 67 73 66 65 64 58 53
85 81 93 94 90 82 80 68 63 65 67 74 72 78 73 52 67 62 87 85 83 79 80 78 78 75 72 67 58 53 51 52 51 50 48 46 59 57 67 63 49 49 47
88 88 88 85 77 76 75 76 84 88 69 64 67 76 84 74 57 55 65 83 88 87 84 82 81 76 74 72 59 43 52 58 58 58 55 50 54 51 46 58 60 55 56
78 81 77 75 74 69 72 71 82 89 84 59 73 69 75 69 69 78 81 90 96 90 83 83 82 79 76 71 62 50 58 64 66 66 56 55 56 53 54 58 61 59 58
67 80 80 72 65 72 78 66 86 75 61 52 64 71 77 73 74 77 76 82 94 83 94 84 82 78 76 76 70 61 64 71 71 66 59 58 58 57 57 59 62 59 58
66 75 84 72 74 75 88 71 72 66 60 62 71 71 81 70 65 70 69 70 85 97 97 90 86 82 78 77 74 64 68 68 70 67 64 61 61 61 64 66 66 59 60
72 74 77 75 75 72 69 66 64 67 68 67 64 72 74 64 68 75 81 75 70 78 82 82 89 90 82 79 75 72 63 70 74 74 65 70 64 64 60 52 55 63 65
69 71 70 71 71 73 66 68 67 63 61 60 61 70 80 80 72 62 68 61 66 70 92 94 93 93 90 80 82 75 70 73 78 74 78 66 61 60 54 55 58 65 68
67 72 72 70 71 71 69 64 67 70 68 64 65 67 76 75 70 58 54 60 77 88 94 99 99 100 94 98 91 80 78 71 78 77 73 76 62 52 49 50 52 59 61

GFSSE_850_rhum_063.txt.gz
RH
87 75 80 82 72 60 54 52 54 57 55 58 47 28 11 13 14 14 14 15 47 50 40 28 21 21 23 30 45 58 67 70 49 28 38 43 40 36 42 48 61 80 92
77 85 87 83 78 65 58 56 57 59 60 56 37 13 11 14 17 29 21 50 50 41 30 26 28 30 33 54 66 74 80 82 83 61 26 75 93 54 39 41 42 50 50
53 56 81 97 84 70 62 59 63 63 63 49 20 10 12 20 53 35 50 52 43 32 30 29 28 28 48 64 68 73 82 86 94 82 36 54 59 76 75 59 46 80 77
52 37 29 52 95 79 68 64 67 66 62 38 12 11 14 55 55 46 52 45 36 31 30 29 29 30 49 66 74 79 76 80 76 72 29 26 46 59 57 42 37 62 88
46 46 41 89 92 79 73 68 69 69 57 24 11 14 38 58 42 47 46 39 31 31 32 31 32 30 47 63 63 69 67 73 74 65 16 17 18 21 14 16 24 34 59
53 61 76 95 81 86 79 74 74 71 48 14 10 18 64 55 45 46 42 31 32 33 32 31 25 24 50 59 60 66 64 60 38 15 14 15 16 24 20 22 17 19 24
98 90 90 85 96 97 86 80 78 66 30 11 15 25 72 70 58 40 34 32 34 34 31 26 22 22 51 55 66 69 66 63 56 17 16 16 17 33 36 22 16 15 16
92 83 98 99 99 100 93 89 77 47 16 15 22 44 74 70 58 35 33 35 39 35 30 24 21 18 39 53 57 64 67 70 58 28 17 15 15 19 13 11 11 15 29
74 72 71 79 96 100 100 100 80 42 30 64 41 62 73 67 52 35 37 41 41 38 30 24 21 18 26 46 53 66 68 59 55 50 19 16 14 17 17 15 18 22 24
83 73 75 72 77 70 83 90 95 61 56 74 64 67 74 71 59 42 41 45 45 45 39 27 24 23 28 44 50 49 57 61 55 51 24 18 18 17 18 17 28 40 24
93 86 78 80 82 75 83 84 78 68 56 63 72 75 75 76 58 45 46 48 52 54 48 32 30 30 29 35 41 44 42 51 48 42 26 17 21 21 22 23 24 46 54
98 98 94 81 88 82 97 80 72 44 50 68 76 68 62 63 51 45 50 53 54 57 57 51 42 39 38 35 32 40 37 36 35 32 30 16 23 28 22 20 22 29 27
100 92 94 93 92 82 87 78 76 54 53 74 78 68 56 53 47 48 51 53 56 58 60 60 55 44 39 37 35 31 32 31 31 32 33 15 20 24 22 20 20 22 29
98 99 100 100 92 92 86 84 80 58 67 72 65 56 47 47 48 42 48 52 55 61 62 63 62 57 55 38 35 30 32 30 32 34 41 26 19 30 41 30 30 28 26
100 100 100 100 99 92 77 65 75 89 72 57 62 60 58 50 43 45 43 44 55 61 67 65 66 66 58 41 38 36 32 31 33 41 48 44 33 38 66 58 27 24 31
100 100 99 100 100 82 77 68 64 60 73 74 66 59 50 50 55 47 43 41 56 65 71 68 70 70 63 61 41 39 39 37 34 43 46 47 48 44 31 36 35 35 41
99 99 100 98 97 86 82 75 76 84 84 72 59 53 64 62 60 43 38 61 72 78 78 73 74 73 69 68 54 42 42 43 36 40 44 48 48 52 56 52 50 52 39
98 100 100 100 96 78 69 71 90 82 73 61 59 61 66 56 41 42 67 79 84 81 78 77 76 75 72 66 60 54 43 45 47 47 50 48 48 59 66 65 64 61 53
100 98 98 95 89 77 72 68 68 66 65 61 66 68 48 43 45 72 74 82 82 83 80 74 75 75 72 68 63 60 55 46 48 52 54 50 50 54 58 56 64 50 52
98 99 91 88 83 76 71 79 81 76 66 56 74 68 53 52 53 66 78 69 82 84 78 74 78 78 74 73 70 62 53 44 46 60 59 55 50 56 59 53 48 51 57
82 84 87 86 88 80 89 91 75 64 64 62 64 52 69 69 71 63 50 64 73 74 76 80 79 81 77 76 73 60 51 46 58 64 66 61 57 54 51 52 54 56 61
78 84 83 81 80 87 71 65 63 69 60 57 54 66 72 74 75 62 53 60 68 83 84 86 87 82 81 80 74 65 55 60 63 66 69 66 61 57 56 55 56 58 61
67 60 66 67 67 64 64 70 76 84 83 78 61 69 70 72 68 67 61 65 70 86 87 80 78 79 77 82 77 71 72 66 68 70 69 66 63 59 58 60 62 57 60
51 56 57 59 57 60 68 68 72 83 81 66 47 46 54 60 64 68 68 68 75 77 79 75 79 83 88 84 91 83 76 76 75 72 71 68 66 64 64 65 59 52 59
51 51 56 56 59 67 74 82 84 70 64 51 56 61 60 65 68 70 70 73 73 81 90 87 86 87 95 95 86 93 88 90 87 78 73 71 71 72 70 65 60 59 57
64 63 54 54 55 56 66 77 83 71 65 66 67 65 64 69 70 77 76 80 76 79 86 83 94 100 99 99 92 97 94 95 95 83 77 78 76 76 58 60 58 54 61

GFSSE_850_rhum_069.txt.gz
RH
84 76 66 54 50 42 51 53 59 45 46 44 51 64 65 59 54 45 29 35 70 79 80 56 34 27 25 25 33 51 54 48 51 50 54 77 63 55 79 84 80 80 84
98 90 70 51 37 39 45 52 54 52 47 42 34 41 50 48 40 26 20 32 63 56 38 28 30 37 40 35 28 28 36 56 85 91 98 98 98 68 59 81 84 83 85
84 85 72 55 40 39 46 52 53 51 51 45 31 23 30 29 21 17 34 48 41 26 22 32 37 46 57 60 51 46 36 36 49 70 72 94 97 100 99 98 98 95 93
97 78 74 65 56 45 45 47 62 58 53 38 22 28 34 31 37 45 41 30 24 26 32 35 44 60 64 63 62 63 58 27 30 29 32 72 98 99 98 100 97 98 99
82 85 76 77 75 60 56 41 57 77 52 29 25 39 39 42 46 39 30 27 29 34 44 40 53 60 66 70 72 61 52 39 17 20 28 36 58 85 95 99 99 100 93
92 89 97 90 91 85 75 62 50 72 65 26 26 34 41 50 41 32 26 23 24 36 50 51 56 62 64 66 64 29 17 15 15 16 18 30 43 69 79 97 80 91 73
89 81 79 96 99 100 100 98 76 80 73 22 27 41 58 44 35 27 25 25 29 47 55 56 60 62 66 65 60 48 18 16 14 15 18 24 43 62 67 63 76 81 77
89 96 89 98 97 85 76 72 98 80 84 56 49 54 53 40 30 28 29 31 33 51 62 58 59 61 64 59 59 49 42 18 16 15 16 16 32 47 67 68 51 50 49
99 100 91 98 85 81 87 63 99 98 77 81 52 49 48 35 31 32 33 29 33 57 61 57 58 64 61 59 57 51 45 32 18 16 16 18 32 45 44 39 33 37 31
100 99 100 88 70 67 81 77 99 100 94 89 51 50 47 36 36 35 30 24 24 50 57 55 53 56 59 60 55 50 43 33 21 18 17 17 23 40 31 29 26 18 16
100 100 99 98 90 87 86 68 91 97 98 90 70 55 43 42 40 34 26 23 19 25 53 52 49 45 38 50 49 44 38 30 28 20 20 19 18 32 33 34 23 22 24
100 98 97 96 92 86 72 70 81 74 87 79 75 63 42 43 39 33 29 23 20 19 41 51 50 50 45 44 41 36 32 31 31 23 23 24 23 28 36 33 30 26 22
99 98 91 95 94 86 90 92 90 83 82 82 73 56 44 45 41 42 34 26 23 22 26 40 45 41 43 39 37 34 31 33 34 32 27 26 27 31 34 33 27 24 25
99 87 83 90 89 90 95 99 91 90 89 86 76 58 46 46 48 52 49 42 37 32 31 29 31 36 33 32 34 32 32 34 39 41 38 39 34 31 33 32 32 29 30
100 88 89 90 82 88 86 96 82 74 83 82 78 65 44 50 54 55 54 54 52 56 50 50 43 38 35 34 32 33 34 35 41 45 44 46 45 43 44 46 40 42 43
89 92 97 100 98 92 90 89 82 75 73 78 82 65 53 53 53 54 56 54 58 57 57 61 61 59 42 38 36 37 35 38 40 45 46 48 48 48 50 54 54 58 57
85 92 98 100 100 95 93 83 78 67 58 68 76 69 49 50 50 54 54 57 57 55 61 59 62 67 54 49 39 39 39 41 40 43 46 50 48 45 48 54 57 59 57
92 100 100 100 100 95 89 75 94 95 91 85 72 53 49 46 45 48 52 59 43 51 60 61 64 69 68 67 62 50 41 42 42 44 46 50 50 46 48 54 59 58 54
93 100 100 100 100 98 93 99 99 95 81 67 62 56 52 47 46 45 49 48 41 54 65 65 63 68 72 68 65 61 62 63 62 43 41 48 52 53 50 54 55 54 53
92 100 100 100 100 100 97 86 92 88 85 77 65 57 54 52 51 50 55 58 60 61 62 65 69 71 74 75 74 66 63 64 62 57 50 53 57 59 54 56 56 50 50
95 98 100 100 99 100 95 94 99 87 82 73 65 62 63 62 56 56 62 64 68 60 48 56 73 81 77 79 78 73 70 66 64 61 52 50 61 63 64 60 60 54 54
98 95 100 100 99 89 91 100 88 76 79 64 56 68 74 59 51 52 66 74 59 51 48 58 77 83 83 82 81 78 78 68 65 62 57 52 54 64 68 67 63 60 57
92 99 95 99 99 83 78 94 86 88 78 69 55 55 51 47 52 59 72 64 60 51 58 61 77 84 84 86 86 83 78 75 71 71 64 58 55 62 67 70 66 63 60
66 82 94 98 96 88 80 71 74 77 82 64 57 50 48 54 59 67 72 70 64 62 67 60 69 79 84 94 93 93 88 82 86 76 72 70 63 64 74 75 72 66 62
57 65 76 90 91 84 78 73 79 78 69 65 63 57 54 54 62 56 57 58 56 61 73 72 74 73 76 84 91 97 96 94 90 93 88 80 74 76 83 72 70 71 68
54 59 68 77 82 84 74 68 69 73 72 69 68 69 55 54 55 50 44 45 51 65 71 76 78 81 81 86 92 96 97 99 98 100 99 92 80 83 82 77 74 76 77